Time,TemperatureF,DewpointF,PressureIn,WindDirection,WindDirectionDegrees,WindSpeedMPH,WindSpeedGustMPH,Humidity,HourlyPrecipIn,Conditions,Clouds,dailyrainin,SoftwareType,DateUTC
2013-01-31 00:00:00,53.0,53.0,29.27,SSE,150,37.0,41.0,100,-99.99,,,-99.99,,2013-01-31 05:00:00,
2013-01-31 00:11:00,53.0,53.0,29.27,SSE,150,37.0,41.0,100,-99.99,,,-99.99,,2013-01-31 05:11:00,
2013-01-31 00:21:00,53.0,53.0,29.27,SSE,150,37.0,41.0,100,-99.99,,,-99.99,,2013-01-31 05:21:00,
2013-01-31 00:31:00,53.0,53.0,29.27,SSE,150,37.0,41.0,100,-99.99,,,-99.99,,2013-01-31 05:31:00,
2013-01-31 00:41:00,53.0,53.0,29.27,SSE,150,37.0,41.0,100,-99.99,,,-99.99,,2013-01-31 05:41:00,
2013-01-31 00:51:00,53.0,53.0,29.27,SSE,150,37.0,41.0,100,-99.99,,,-99.99,,2013-01-31 05:51:00,
2013-01-31 08:00:00,45.0,27.0,29.50,WNW,290,28.0,34.0,49,-99.99,,,-99.99,,2013-01-31 13:00:00,
2013-01-31 09:00:00,43.0,22.0,29.54,WNW,300,34.0,40.0,43,-99.99,,,-99.99,,2013-01-31 14:00:00,
2013-01-31 09:21:00,43.0,22.0,29.54,WNW,300,34.0,40.0,43,-99.99,,,-99.99,,2013-01-31 14:21:00,
2013-01-31 09:31:00,43.0,22.0,29.54,WNW,300,34.0,40.0,43,-99.99,,,-99.99,,2013-01-31 14:31:00,
2013-01-31 09:41:00,43.0,22.0,29.54,WNW,300,34.0,40.0,43,-99.99,,,-99.99,,2013-01-31 14:41:00,
2013-01-31 09:52:00,43.0,22.0,29.54,WNW,300,34.0,40.0,43,-99.99,,,-99.99,,2013-01-31 14:52:00,
2013-01-31 10:00:00,43.0,20.0,29.59,West,280,37.0,45.0,39,-99.99,,,-99.99,,2013-01-31 15:00:00,
2013-01-31 10:21:00,43.0,20.0,29.59,West,280,37.0,45.0,39,-99.99,,,-99.99,,2013-01-31 15:21:00,
2013-01-31 10:31:00,43.0,20.0,29.59,West,280,37.0,45.0,39,-99.99,,,-99.99,,2013-01-31 15:31:00,
2013-01-31 10:42:00,43.0,20.0,29.59,West,280,37.0,45.0,39,-99.99,,,-99.99,,2013-01-31 15:42:00,
2013-01-31 10:51:00,43.0,20.0,29.59,West,280,37.0,45.0,39,-99.99,,,-99.99,,2013-01-31 15:51:00,
2013-01-31 11:00:00,43.0,20.0,29.63,West,280,30.0,37.0,40,-99.99,,,-99.99,,2013-01-31 16:00:00,
2013-01-31 11:21:00,43.0,20.0,29.63,West,280,30.0,37.0,40,-99.99,,,-99.99,,2013-01-31 16:21:00,
2013-01-31 11:32:00,43.0,20.0,29.63,West,280,30.0,37.0,40,-99.99,,,-99.99,,2013-01-31 16:32:00,
2013-01-31 11:41:00,43.0,20.0,29.63,West,280,30.0,37.0,40,-99.99,,,-99.99,,2013-01-31 16:41:00,
2013-01-31 11:51:00,43.0,20.0,29.63,West,280,30.0,37.0,40,-99.99,,,-99.99,,2013-01-31 16:51:00,
2013-01-31 12:00:00,43.0,18.0,29.64,West,280,38.0,45.0,37,-99.99,,,-99.99,,2013-01-31 17:00:00,
2013-01-31 12:22:00,43.0,18.0,29.64,West,280,38.0,45.0,37,-99.99,,,-99.99,,2013-01-31 17:22:00,
2013-01-31 12:31:00,43.0,18.0,29.64,West,280,38.0,45.0,37,-99.99,,,-99.99,,2013-01-31 17:31:00,
2013-01-31 12:42:00,43.0,18.0,29.64,West,280,38.0,45.0,37,-99.99,,,-99.99,,2013-01-31 17:42:00,
2013-01-31 12:53:00,43.0,18.0,29.64,West,280,38.0,45.0,37,-99.99,,,-99.99,,2013-01-31 17:53:00,
2013-01-31 13:00:00,44.0,19.0,29.65,WNW,290,21.0,24.0,35,-99.99,,,-99.99,,2013-01-31 18:00:00,
2013-01-31 13:21:00,44.0,19.0,29.65,WNW,290,21.0,24.0,35,-99.99,,,-99.99,,2013-01-31 18:21:00,
2013-01-31 13:31:00,44.0,19.0,29.65,WNW,290,21.0,24.0,35,-99.99,,,-99.99,,2013-01-31 18:31:00,
2013-01-31 13:42:00,44.0,19.0,29.65,WNW,290,21.0,24.0,35,-99.99,,,-99.99,,2013-01-31 18:42:00,
2013-01-31 13:52:00,44.0,19.0,29.65,WNW,290,21.0,24.0,35,-99.99,,,-99.99,,2013-01-31 18:52:00,
2013-01-31 14:00:00,44.0,20.0,29.67,West,270,23.0,29.0,38,-99.99,,,-99.99,,2013-01-31 19:00:00,
2013-01-31 14:21:00,44.0,20.0,29.67,West,270,23.0,29.0,38,-99.99,,,-99.99,,2013-01-31 19:21:00,
2013-01-31 14:31:00,44.0,20.0,29.67,West,270,23.0,29.0,38,-99.99,,,-99.99,,2013-01-31 19:31:00,
2013-01-31 14:42:00,44.0,20.0,29.67,West,270,23.0,29.0,38,-99.99,,,-99.99,,2013-01-31 19:42:00,
2013-01-31 14:51:00,44.0,20.0,29.67,West,270,23.0,29.0,38,-99.99,,,-99.99,,2013-01-31 19:51:00,
2013-01-31 15:00:00,43.0,18.0,29.69,WNW,300,28.0,32.0,36,-99.99,,,-99.99,,2013-01-31 20:00:00,
2013-01-31 15:21:00,43.0,18.0,29.69,WNW,300,28.0,32.0,36,-99.99,,,-99.99,,2013-01-31 20:21:00,
2013-01-31 15:31:00,43.0,18.0,29.69,WNW,300,28.0,32.0,36,-99.99,,,-99.99,,2013-01-31 20:31:00,
2013-01-31 15:41:00,43.0,18.0,29.69,WNW,300,28.0,32.0,36,-99.99,,,-99.99,,2013-01-31 20:41:00,
2013-01-31 15:51:00,43.0,18.0,29.69,WNW,300,28.0,32.0,36,-99.99,,,-99.99,,2013-01-31 20:51:00,
2013-01-31 16:00:00,41.0,18.0,29.74,WNW,300,25.0,29.0,40,-99.99,,,-99.99,,2013-01-31 21:00:00,
2013-01-31 16:11:00,41.0,18.0,29.74,WNW,300,25.0,29.0,40,-99.99,,,-99.99,,2013-01-31 21:11:00,
2013-01-31 16:21:00,41.0,18.0,29.74,WNW,300,25.0,29.0,40,-99.99,,,-99.99,,2013-01-31 21:21:00,
2013-01-31 16:31:00,41.0,18.0,29.74,WNW,300,25.0,29.0,40,-99.99,,,-99.99,,2013-01-31 21:31:00,
2013-01-31 16:42:00,41.0,18.0,29.74,WNW,300,25.0,29.0,40,-99.99,,,-99.99,,2013-01-31 21:42:00,
2013-01-31 16:51:00,41.0,18.0,29.74,WNW,300,25.0,29.0,40,-99.99,,,-99.99,,2013-01-31 21:51:00,
2013-01-31 17:00:00,40.0,16.0,29.79,WNW,290,30.0,32.0,36,-99.99,,,-99.99,,2013-01-31 22:00:00,
2013-01-31 17:21:00,40.0,16.0,29.79,WNW,290,30.0,32.0,36,-99.99,,,-99.99,,2013-01-31 22:21:00,
2013-01-31 17:32:00,40.0,16.0,29.79,WNW,290,30.0,32.0,36,-99.99,,,-99.99,,2013-01-31 22:32:00,
2013-01-31 17:41:00,40.0,16.0,29.79,WNW,290,30.0,32.0,36,-99.99,,,-99.99,,2013-01-31 22:41:00,
2013-01-31 17:51:00,40.0,16.0,29.79,WNW,290,30.0,32.0,36,-99.99,,,-99.99,,2013-01-31 22:51:00,
2013-01-31 18:00:00,39.0,15.0,29.83,WNW,290,22.0,24.0,37,-99.99,,,-99.99,,2013-01-31 23:00:00,
2013-01-31 18:11:00,39.0,15.0,29.83,WNW,290,22.0,24.0,37,-99.99,,,-99.99,,2013-01-31 23:11:00,
2013-01-31 18:21:00,39.0,15.0,29.83,WNW,290,22.0,24.0,37,-99.99,,,-99.99,,2013-01-31 23:21:00,
2013-01-31 18:31:00,39.0,15.0,29.83,WNW,290,22.0,24.0,37,-99.99,,,-99.99,,2013-01-31 23:31:00,
2013-01-31 18:41:00,39.0,15.0,29.83,WNW,290,22.0,24.0,37,-99.99,,,-99.99,,2013-01-31 23:41:00,
2013-01-31 18:52:00,39.0,15.0,29.83,WNW,290,22.0,24.0,37,-99.99,,,-99.99,,2013-01-31 23:52:00,
2013-01-31 19:00:00,38.0,18.0,29.87,WNW,290,16.0,22.0,43,-99.99,,,-99.99,,2013-02-01 00:00:00,
2013-01-31 19:21:00,38.0,18.0,29.87,WNW,290,16.0,22.0,43,-99.99,,,-99.99,,2013-02-01 00:21:00,
2013-01-31 19:31:00,38.0,18.0,29.87,WNW,290,16.0,22.0,43,-99.99,,,-99.99,,2013-02-01 00:31:00,
2013-01-31 19:41:00,38.0,18.0,29.87,WNW,290,16.0,22.0,43,-99.99,,,-99.99,,2013-02-01 00:41:00,
2013-01-31 19:51:00,38.0,18.0,29.87,WNW,290,16.0,22.0,43,-99.99,,,-99.99,,2013-02-01 00:51:00,
2013-01-31 20:00:00,36.0,14.0,29.89,WNW,300,26.0,31.0,40,-99.99,,,-99.99,,2013-02-01 01:00:00,
2013-01-31 20:21:00,36.0,14.0,29.89,WNW,300,26.0,31.0,40,-99.99,,,-99.99,,2013-02-01 01:21:00,
2013-01-31 20:31:00,36.0,14.0,29.89,WNW,300,26.0,31.0,40,-99.99,,,-99.99,,2013-02-01 01:31:00,
2013-01-31 20:41:00,36.0,14.0,29.89,WNW,300,26.0,31.0,40,-99.99,,,-99.99,,2013-02-01 01:41:00,
2013-01-31 20:51:00,36.0,14.0,29.89,WNW,300,26.0,31.0,40,-99.99,,,-99.99,,2013-02-01 01:51:00,
2013-01-31 21:00:00,34.0,14.0,29.92,WNW,300,17.0,20.0,43,-99.99,,,-99.99,,2013-02-01 02:00:00,
2013-01-31 21:11:00,34.0,14.0,29.92,WNW,300,17.0,20.0,43,-99.99,,,-99.99,,2013-02-01 02:11:00,
2013-01-31 21:21:00,34.0,14.0,29.92,WNW,300,17.0,20.0,43,-99.99,,,-99.99,,2013-02-01 02:21:00,
2013-01-31 21:31:00,34.0,14.0,29.92,WNW,300,17.0,20.0,43,-99.99,,,-99.99,,2013-02-01 02:31:00,
2013-01-31 21:41:00,34.0,14.0,29.92,WNW,300,17.0,20.0,43,-99.99,,,-99.99,,2013-02-01 02:41:00,
2013-01-31 21:52:00,34.0,14.0,29.92,WNW,300,17.0,20.0,43,-99.99,,,-99.99,,2013-02-01 02:52:00,
2013-01-31 22:00:00,33.0,11.0,29.93,NW,310,10.0,13.0,40,-99.99,,,-99.99,,2013-02-01 03:00:00,
2013-01-31 22:21:00,33.0,11.0,29.93,NW,310,10.0,13.0,40,-99.99,,,-99.99,,2013-02-01 03:21:00,
2013-01-31 22:32:00,33.0,11.0,29.93,NW,310,10.0,13.0,40,-99.99,,,-99.99,,2013-02-01 03:32:00,
2013-01-31 22:41:00,33.0,11.0,29.93,NW,310,10.0,13.0,40,-99.99,,,-99.99,,2013-02-01 03:41:00,
2013-01-31 22:51:00,33.0,11.0,29.93,NW,310,10.0,13.0,40,-99.99,,,-99.99,,2013-02-01 03:51:00,
2013-01-31 23:11:00,32.0,12.0,29.94,WNW,300,8.0,10.0,42,-99.99,,,-99.99,,2013-02-01 04:11:00,
2013-01-31 23:21:00,32.0,12.0,29.94,WNW,300,8.0,10.0,42,-99.99,,,-99.99,,2013-02-01 04:21:00,
2013-01-31 23:31:00,32.0,12.0,29.94,WNW,300,8.0,10.0,42,-99.99,,,-99.99,,2013-02-01 04:31:00,
2013-01-31 23:41:00,32.0,12.0,29.94,WNW,300,8.0,10.0,42,-99.99,,,-99.99,,2013-02-01 04:41:00,
2013-01-31 23:51:00,32.0,12.0,29.94,WNW,300,8.0,10.0,42,-99.99,,,-99.99,,2013-02-01 04:51:00,